{"data":{"norad_id":67075,"intl_designator":"2025-298A","name":"STARLINK-36230","alt_names":[],"object_type":"PAYLOAD","status":"ACTIVE","operator":null,"country":"US","launch_date":"2025-12-14","launch_site_code":"AFWTR","launch_vehicle":null,"mission":null,"orbit_class":"UNKNOWN","rcs_meters":null,"size_class":null,"mass_kg":null,"dimensions":null,"purposes":["comms"],"wikipedia_slug":null,"has_3d_model":false,"image_url":null,"decayed_at":null,"tle_current":{"epoch":"2026-05-25T01:13:19.436160Z","epoch_age_seconds":74618,"freshness":"FRESH","line1":"1 67075U 25298A   26145.05091940  .00003608  00000+0  30988-3 0  9994","line2":"2 67075  70.0009 181.9992 0002955 273.4451  86.6370 14.98348215 24651","mean_motion":14.98348215,"eccentricity":0.0002955,"inclination_deg":70.0009,"raan_deg":181.9992,"arg_perigee_deg":273.4451,"mean_anomaly_deg":86.637,"bstar":0.00030988,"rev_number":2465,"period_min":96.105830779796,"perigee_km":569.94579777571,"apogee_km":574.05332848452,"semimajor_km":6950.1365631301,"source":"CELESTRAK","updated_at":"2026-05-25T13:38:21.442795Z"}}}